• In Italy
  • List of Countries
  • For 7 days
  • Water Temperature
  • Satellite Maps
  • Weather Map
  • Weather Widgets
  • user-avatar
    Login

    Hourly Weather Ambor

    Today, 24 September, Sunday

    Time Temperature Precipitation Wind Pressure Humidity
    00:00 +27°C° 0.8 mm 1 mps 754 mmHg 97%
    01:00 +27°C° 0.8 mm 1 mps 754 mmHg 96%
    02:00 +27°C° 0.8 mm 1 mps 754 mmHg 96%
    03:00 +27°C° 0 mm 1 mps 754 mmHg 96%
    04:00 +27°C° 1.7 mm 2 mps 754 mmHg 97%
    05:00 +27°C° 1.7 mm 2 mps 754 mmHg 97%
    06:00 +27°C° 1.7 mm 2 mps 754 mmHg 98%
    07:00 +27°C° 3.4 mm 2 mps 754 mmHg 98%
    08:00 +27°C° 3.4 mm 2 mps 755 mmHg 98%
    09:00 +27°C° 0 mm 1 mps 755 mmHg 98%
    10:00 +28°C° 2 mm 1 mps 755 mmHg 98%
    11:00 +28°C° 2 mm 1 mps 754 mmHg 97%
    12:00 +28°C° 2 mm 2 mps 754 mmHg 97%
    13:00 +28°C° 0.4 mm 1 mps 754 mmHg 96%
    14:00 +28°C° 0.4 mm 1 mps 753 mmHg 95%
    15:00 +28°C° 0 mm 2 mps 753 mmHg 95%
    16:00 +28°C° 0 mm 2 mps 753 mmHg 96%
    17:00 +28°C° 0 mm 2 mps 753 mmHg 96%
    18:00 +27°C° 0 mm 2 mps 753 mmHg 97%
    19:00 +27°C° 0 mm 2 mps 754 mmHg 98%
    20:00 +27°C° 0 mm 2 mps 754 mmHg 98%
    21:00 +27°C° 0 mm 2 mps 754 mmHg 99%
    22:00 +27°C° 0 mm 2 mps 754 mmHg 99%
    23:00 +27°C° 0 mm 2 mps 754 mmHg 99%

    Tomorrow, 25 September, Monday

    Time Temperature Precipitation Wind Pressure Humidity
    00:00 +27°C° 0 mm 1 mps 754 mmHg 99%
    01:00 +27°C° 0 mm 1 mps 754 mmHg 99%
    02:00 +27°C° 0 mm 1 mps 754 mmHg 98%
    03:00 +26°C° 0 mm 1 mps 754 mmHg 98%
    04:00 +26°C° 0 mm 1 mps 754 mmHg 97%
    05:00 +26°C° 0 mm 1 mps 754 mmHg 97%
    06:00 +26°C° 0 mm 1 mps 754 mmHg 96%
    07:00 +27°C° 0 mm 1 mps 754 mmHg 95%
    08:00 +28°C° 0 mm 2 mps 754 mmHg 93%
    09:00 +28°C° 0 mm 2 mps 755 mmHg 92%
    10:00 +29°C° 0 mm 2 mps 754 mmHg 91%
    11:00 +29°C° 0 mm 2 mps 754 mmHg 90%
    12:00 +29°C° 0 mm 2 mps 754 mmHg 89%
    13:00 +29°C° 0 mm 3 mps 754 mmHg 90%
    14:00 +29°C° 0 mm 3 mps 753 mmHg 91%
    15:00 +29°C° 0 mm 3 mps 753 mmHg 92%
    16:00 +28°C° 0 mm 3 mps 753 mmHg 94%
    17:00 +28°C° 0 mm 3 mps 753 mmHg 95%
    18:00 +27°C° 0 mm 3 mps 753 mmHg 97%
    19:00 +27°C° 0 mm 3 mps 753 mmHg 97%
    20:00 +27°C° 0 mm 3 mps 754 mmHg 98%
    21:00 +27°C° 0 mm 2 mps 754 mmHg 99%
    22:00 +27°C° 0 mm 2 mps 754 mmHg 99%
    23:00 +27°C° 0 mm 2 mps 754 mmHg 99%

    Day after tomorrow, 26 September, Tuesday

    Time Temperature Precipitation Wind Pressure Humidity
    00:00 +27°C° 0 mm 2 mps 754 mmHg 99%
    01:00 +27°C° 0 mm 2 mps 754 mmHg 99%
    02:00 +27°C° 0 mm 1 mps 754 mmHg 98%
    03:00 +27°C° 0 mm 1 mps 753 mmHg 98%
    04:00 +27°C° 0 mm 1 mps 753 mmHg 98%
    05:00 +27°C° 0 mm 1 mps 754 mmHg 98%
    06:00 +26°C° 0 mm 1 mps 754 mmHg 97%
    07:00 +27°C° 0 mm 1 mps 754 mmHg 96%
    08:00 +27°C° 0 mm 1 mps 755 mmHg 95%
    09:00 +28°C° 0 mm 1 mps 755 mmHg 94%
    10:00 +29°C° 0 mm 2 mps 755 mmHg 89%
    11:00 +30°C° 0 mm 2 mps 755 mmHg 84%
    12:00 +31°C° 0 mm 2 mps 755 mmHg 79%
    13:00 +30°C° 0.3 mm 3 mps 754 mmHg 84%
    14:00 +30°C° 0.3 mm 3 mps 754 mmHg 88%
    15:00 +29°C° 0.3 mm 3 mps 753 mmHg 93%
    16:00 +29°C° 0.1 mm 3 mps 753 mmHg 94%
    17:00 +28°C° 0.1 mm 3 mps 753 mmHg 95%
    18:00 +28°C° 0.1 mm 3 mps 753 mmHg 96%
    19:00 +28°C° 0.1 mm 3 mps 754 mmHg 97%
    20:00 +28°C° 0.1 mm 3 mps 754 mmHg 98%
    21:00 +27°C° 0.1 mm 3 mps 755 mmHg 98%
    22:00 +27°C° 0.1 mm 2 mps 755 mmHg 99%
    23:00 +27°C° 0.1 mm 2 mps 755 mmHg 99%

    27 September, Wednesday

    Time Temperature Precipitation Wind Pressure Humidity
    00:00 +27°C° 0.1 mm 2 mps 755 mmHg 99%
    01:00 +27°C° 0.2 mm 2 mps 755 mmHg 99%
    02:00 +27°C° 0.2 mm 2 mps 754 mmHg 99%
    03:00 +27°C° 0.2 mm 2 mps 754 mmHg 99%
    04:00 +27°C° 0.6 mm 2 mps 754 mmHg 99%
    05:00 +27°C° 0.6 mm 1 mps 754 mmHg 98%
    06:00 +26°C° 0.6 mm 1 mps 754 mmHg 98%
    07:00 +28°C° 0.1 mm 1 mps 755 mmHg 93%
    08:00 +29°C° 0.1 mm 1 mps 755 mmHg 89%
    09:00 +31°C° 0.1 mm 1 mps 755 mmHg 84%
    10:00 +31°C° 0.1 mm 2 mps 755 mmHg 84%
    11:00 +31°C° 0.1 mm 2 mps 755 mmHg 84%
    12:00 +31°C° 0.1 mm 2 mps 755 mmHg 83%
    13:00 +31°C° 0.2 mm 3 mps 754 mmHg 86%
    14:00 +30°C° 0.2 mm 3 mps 754 mmHg 88%
    15:00 +30°C° 0.2 mm 3 mps 753 mmHg 90%
    16:00 +29°C° 0.3 mm 3 mps 753 mmHg 92%
    17:00 +29°C° 0.3 mm 4 mps 753 mmHg 95%
    18:00 +28°C° 0.3 mm 4 mps 753 mmHg 97%
    19:00 +28°C° 0.8 mm 3 mps 754 mmHg 98%
    20:00 +27°C° 0.8 mm 3 mps 754 mmHg 98%
    21:00 +27°C° 0.8 mm 3 mps 755 mmHg 99%
    22:00 +27°C° 0.8 mm 3 mps 755 mmHg 99%
    23:00 +27°C° 0.8 mm 2 mps 755 mmHg 99%

    28 September, Thursday

    Time Temperature Precipitation Wind Pressure Humidity
    00:00 +26°C° 0.8 mm 2 mps 755 mmHg 98%
    01:00 +26°C° 0.5 mm 2 mps 755 mmHg 98%
    02:00 +26°C° 0.5 mm 2 mps 754 mmHg 98%
    03:00 +26°C° 0.5 mm 2 mps 754 mmHg 98%
    04:00 +26°C° 0.3 mm 2 mps 754 mmHg 98%
    05:00 +26°C° 0.3 mm 2 mps 754 mmHg 98%
    06:00 +26°C° 0.3 mm 2 mps 754 mmHg 98%
    07:00 +27°C° 0.1 mm 2 mps 755 mmHg 94%
    08:00 +29°C° 0.1 mm 2 mps 755 mmHg 90%
    09:00 +30°C° 0.1 mm 2 mps 756 mmHg 86%
    10:00 +31°C° 0 mm 2 mps 755 mmHg 85%
    11:00 +31°C° 0 mm 2 mps 755 mmHg 83%
    12:00 +32°C° 0 mm 2 mps 754 mmHg 82%
    13:00 +31°C° 0 mm 2 mps 754 mmHg 84%
    14:00 +31°C° 0 mm 2 mps 753 mmHg 86%
    15:00 +30°C° 0 mm 2 mps 753 mmHg 89%
    16:00 +29°C° 0 mm 2 mps 753 mmHg 91%
    17:00 +29°C° 0 mm 2 mps 753 mmHg 94%
    18:00 +28°C° 0 mm 2 mps 753 mmHg 96%
    19:00 +28°C° 0.2 mm 2 mps 753 mmHg 96%
    20:00 +28°C° 0.2 mm 2 mps 754 mmHg 97%
    21:00 +27°C° 0.2 mm 2 mps 755 mmHg 97%
    22:00 +27°C° 0.5 mm 2 mps 755 mmHg 98%
    23:00 +27°C° 0.5 mm 1 mps 755 mmHg 98%

    29 September, Friday

    Time Temperature Precipitation Wind Pressure Humidity
    00:00 +27°C° 0.5 mm 1 mps 755 mmHg 98%
    01:00 +27°C° 0.4 mm 1 mps 754 mmHg 98%
    02:00 +26°C° 0.4 mm 1 mps 754 mmHg 98%
    03:00 +26°C° 0.4 mm 1 mps 753 mmHg 98%
    04:00 +26°C° 0.2 mm 1 mps 754 mmHg 98%
    05:00 +26°C° 0.2 mm 2 mps 754 mmHg 98%
    06:00 +27°C° 0.2 mm 2 mps 755 mmHg 97%
    07:00 +28°C° 0 mm 2 mps 755 mmHg 93%
    08:00 +29°C° 0 mm 2 mps 756 mmHg 88%
    09:00 +31°C° 0 mm 2 mps 756 mmHg 83%
    10:00 +31°C° 0 mm 2 mps 755 mmHg 81%
    11:00 +32°C° 0 mm 2 mps 755 mmHg 79%
    12:00 +32°C° 0 mm 2 mps 754 mmHg 77%
    13:00 +31°C° 0 mm 2 mps 754 mmHg 82%
    14:00 +30°C° 0 mm 3 mps 753 mmHg 88%
    15:00 +29°C° 0 mm 3 mps 753 mmHg 93%
    16:00 +29°C° 0 mm 3 mps 753 mmHg 94%
    17:00 +28°C° 0 mm 3 mps 753 mmHg 96%
    18:00 +28°C° 0 mm 3 mps 754 mmHg 98%
    19:00 +28°C° 0.3 mm 3 mps 754 mmHg 98%
    20:00 +28°C° 0.3 mm 3 mps 755 mmHg 98%
    21:00 +27°C° 0.3 mm 3 mps 755 mmHg 98%
    22:00 +27°C° 0.2 mm 3 mps 755 mmHg 98%
    23:00 +27°C° 0.2 mm 2 mps 755 mmHg 98%
    Show more